When you browse on this site, cookies collect data to enhance your experience and personalize the content and advertising you see.
Visit our Privacy Policy to learn more. By continuing to use the site, you agree to this use of cookies and data.
  • In Portugal
  • List of Countries
  • For 7 days
  • Water Temperature
  • Weather Map
  • Weather Widgets
  • user-avatar
    Login

    Hourly Weather Svetlica

    Today, 25 January, Saturday

    Time Temperature Precipitation Wind Pressure Humidity
    00:00 0°C° 0 mm 5 mps 729 mmHg 92%
    01:00 -1°C° 0 mm 5 mps 729 mmHg 91%
    02:00 -1°C° 0 mm 4 mps 729 mmHg 90%
    03:00 -1°C° 0 mm 4 mps 729 mmHg 91%
    04:00 -1°C° 0 mm 4 mps 729 mmHg 91%
    05:00 -1°C° 0 mm 4 mps 728 mmHg 91%
    06:00 -1°C° 0 mm 4 mps 728 mmHg 90%
    07:00 -1°C° 0 mm 5 mps 727 mmHg 89%
    08:00 -1°C° 0 mm 5 mps 727 mmHg 87%
    09:00 -2°C° 0.2 mm 6 mps 727 mmHg 85%
    10:00 -2°C° 0.2 mm 7 mps 727 mmHg 84%
    11:00 -2°C° 0.2 mm 8 mps 727 mmHg 82%
    12:00 -3°C° 0.2 mm 7 mps 727 mmHg 77%
    13:00 -3°C° 0.2 mm 7 mps 728 mmHg 72%
    14:00 -3°C° 0.2 mm 6 mps 728 mmHg 67%
    15:00 -3°C° 0 mm 6 mps 729 mmHg 70%
    16:00 -4°C° 0 mm 6 mps 729 mmHg 73%
    17:00 -4°C° 0 mm 6 mps 730 mmHg 75%
    18:00 -6°C° 0.1 mm 7 mps 730 mmHg 78%
    19:00 -6°C° 0.1 mm 7 mps 731 mmHg 80%
    20:00 -6°C° 0.1 mm 7 mps 731 mmHg 82%
    21:00 -6°C° 0 mm 7 mps 732 mmHg 80%
    22:00 -5°C° 0 mm 6 mps 733 mmHg 77%
    23:00 -5°C° 0 mm 6 mps 734 mmHg 74%

    Tomorrow, 26 January, Sunday

    Time Temperature Precipitation Wind Pressure Humidity
    00:00 -5°C° 0 mm 5 mps 735 mmHg 75%
    01:00 -5°C° 0 mm 5 mps 736 mmHg 77%
    02:00 -6°C° 0 mm 5 mps 736 mmHg 78%
    03:00 -5°C° 0 mm 4 mps 737 mmHg 79%
    04:00 -5°C° 0 mm 4 mps 737 mmHg 80%
    05:00 -5°C° 0 mm 4 mps 738 mmHg 81%
    06:00 -5°C° 0 mm 4 mps 738 mmHg 82%
    07:00 -5°C° 0 mm 3 mps 738 mmHg 83%
    08:00 -5°C° 0 mm 3 mps 738 mmHg 85%
    09:00 -4°C° 0 mm 3 mps 738 mmHg 84%
    10:00 -4°C° 0 mm 4 mps 738 mmHg 83%
    11:00 -3°C° 0 mm 4 mps 738 mmHg 82%
    12:00 -4°C° 0.3 mm 5 mps 737 mmHg 85%
    13:00 -4°C° 0.3 mm 5 mps 737 mmHg 88%
    14:00 -4°C° 0.3 mm 6 mps 736 mmHg 91%
    15:00 -3°C° 0.5 mm 6 mps 736 mmHg 92%
    16:00 -2°C° 0.5 mm 6 mps 735 mmHg 94%
    17:00 0°C° 0.5 mm 5 mps 735 mmHg 95%
    18:00 -1°C° 0.2 mm 6 mps 735 mmHg 94%
    19:00 +1°C° 0.2 mm 6 mps 735 mmHg 93%
    20:00 +1°C° 0.2 mm 6 mps 735 mmHg 93%
    21:00 +1°C° 0.1 mm 6 mps 735 mmHg 92%
    22:00 +1°C° 0.1 mm 6 mps 735 mmHg 91%
    23:00 +1°C° 0.1 mm 5 mps 736 mmHg 90%

    Day after tomorrow, 27 January, Monday

    Time Temperature Precipitation Wind Pressure Humidity
    00:00 +1°C° 0 mm 5 mps 736 mmHg 91%
    01:00 +1°C° 0 mm 5 mps 736 mmHg 92%
    02:00 +1°C° 0 mm 4 mps 736 mmHg 94%
    03:00 +1°C° 0.1 mm 4 mps 737 mmHg 95%
    04:00 0°C° 0.1 mm 4 mps 737 mmHg 96%
    05:00 +1°C° 0.1 mm 3 mps 737 mmHg 97%
    06:00 +1°C° 0.1 mm 3 mps 737 mmHg 97%
    07:00 +1°C° 0.1 mm 3 mps 737 mmHg 97%
    08:00 +2°C° 0.1 mm 2 mps 738 mmHg 97%
    09:00 +2°C° 0.2 mm 2 mps 738 mmHg 98%
    10:00 +2°C° 0.2 mm 2 mps 738 mmHg 98%
    11:00 +3°C° 0.2 mm 1 mps 738 mmHg 98%
    12:00 +3°C° 0.2 mm 1 mps 738 mmHg 98%
    13:00 +3°C° 0.2 mm 1 mps 738 mmHg 98%
    14:00 +3°C° 0.2 mm 1 mps 738 mmHg 98%
    15:00 +2°C° 0.4 mm 2 mps 738 mmHg 98%
    16:00 +2°C° 0.4 mm 2 mps 738 mmHg 98%
    17:00 +2°C° 0.4 mm 2 mps 738 mmHg 98%
    18:00 +2°C° 0.4 mm 2 mps 738 mmHg 98%
    19:00 +2°C° 0.4 mm 2 mps 738 mmHg 98%
    20:00 +2°C° 0.4 mm 2 mps 737 mmHg 98%
    21:00 +2°C° 0.3 mm 2 mps 737 mmHg 98%
    22:00 +1°C° 0.3 mm 2 mps 737 mmHg 98%
    23:00 +1°C° 0.3 mm 2 mps 737 mmHg 97%

    28 January, Tuesday

    Time Temperature Precipitation Wind Pressure Humidity
    00:00 +1°C° 0.1 mm 2 mps 737 mmHg 98%
    01:00 +1°C° 0.1 mm 2 mps 737 mmHg 98%
    02:00 +1°C° 0.1 mm 2 mps 736 mmHg 98%
    03:00 +1°C° 0.3 mm 2 mps 736 mmHg 98%
    04:00 +1°C° 0.3 mm 2 mps 736 mmHg 98%
    05:00 +1°C° 0.3 mm 1 mps 736 mmHg 99%
    06:00 +1°C° 0.1 mm 1 mps 736 mmHg 98%
    07:00 +2°C° 0.1 mm 1 mps 735 mmHg 98%
    08:00 +2°C° 0.1 mm 1 mps 735 mmHg 98%
    09:00 +2°C° 0.1 mm 1 mps 735 mmHg 98%
    10:00 +2°C° 0.1 mm 1 mps 735 mmHg 98%
    11:00 +2°C° 0.1 mm 1 mps 735 mmHg 98%
    12:00 +2°C° 0 mm 1 mps 735 mmHg 98%
    13:00 +2°C° 0 mm 1 mps 735 mmHg 97%
    14:00 +2°C° 0 mm 1 mps 735 mmHg 97%
    15:00 +1°C° 0 mm 1 mps 735 mmHg 97%
    16:00 +1°C° 0 mm 1 mps 735 mmHg 97%
    17:00 +1°C° 0 mm 1 mps 735 mmHg 97%
    18:00 +1°C° 0 mm 1 mps 735 mmHg 97%
    19:00 +1°C° 0 mm 1 mps 735 mmHg 96%
    20:00 +1°C° 0 mm 1 mps 735 mmHg 95%
    21:00 +1°C° 0 mm 1 mps 735 mmHg 94%
    22:00 -1°C° 0 mm 2 mps 734 mmHg 93%
    23:00 -1°C° 0 mm 2 mps 734 mmHg 92%

    29 January, Wednesday

    Time Temperature Precipitation Wind Pressure Humidity
    00:00 -1°C° 0 mm 2 mps 734 mmHg 94%
    01:00 -1°C° 0 mm 2 mps 734 mmHg 95%
    02:00 -1°C° 0 mm 2 mps 733 mmHg 96%
    03:00 -1°C° 0 mm 2 mps 733 mmHg 96%
    04:00 -1°C° 0 mm 3 mps 733 mmHg 96%
    05:00 0°C° 0 mm 3 mps 733 mmHg 97%
    06:00 0°C° 0.1 mm 3 mps 732 mmHg 96%
    07:00 0°C° 0.1 mm 3 mps 732 mmHg 96%
    08:00 -1°C° 0.1 mm 4 mps 732 mmHg 95%
    09:00 -1°C° 0 mm 4 mps 732 mmHg 94%
    10:00 -1°C° 0 mm 4 mps 732 mmHg 92%
    11:00 -1°C° 0 mm 4 mps 731 mmHg 90%
    12:00 -1°C° 0.1 mm 4 mps 731 mmHg 92%
    13:00 -1°C° 0.1 mm 4 mps 730 mmHg 94%
    14:00 -1°C° 0.1 mm 5 mps 730 mmHg 96%
    15:00 0°C° 0.1 mm 4 mps 730 mmHg 96%
    16:00 0°C° 0.1 mm 4 mps 730 mmHg 96%
    17:00 0°C° 0.1 mm 4 mps 729 mmHg 96%
    18:00 0°C° 0.1 mm 4 mps 729 mmHg 96%
    19:00 0°C° 0.1 mm 4 mps 728 mmHg 96%
    20:00 0°C° 0.1 mm 4 mps 728 mmHg 96%
    21:00 0°C° 0.2 mm 4 mps 728 mmHg 96%
    22:00 0°C° 0.2 mm 4 mps 727 mmHg 96%
    23:00 0°C° 0.2 mm 4 mps 727 mmHg 96%

    30 January, Thursday

    Time Temperature Precipitation Wind Pressure Humidity
    00:00 0°C° 0.3 mm 4 mps 727 mmHg 97%
    01:00 0°C° 0.3 mm 4 mps 726 mmHg 97%
    02:00 -1°C° 0.3 mm 4 mps 726 mmHg 97%
    03:00 -1°C° 0.5 mm 4 mps 726 mmHg 97%
    04:00 0°C° 0.5 mm 3 mps 726 mmHg 97%
    05:00 0°C° 0.5 mm 3 mps 726 mmHg 97%
    06:00 -1°C° 0.2 mm 3 mps 726 mmHg 95%
    07:00 -1°C° 0.2 mm 3 mps 726 mmHg 93%
    08:00 -1°C° 0.2 mm 3 mps 726 mmHg 91%
    09:00 -1°C° 0 mm 3 mps 727 mmHg 89%
    10:00 -1°C° 0 mm 3 mps 727 mmHg 88%
    11:00 -1°C° 0 mm 3 mps 727 mmHg 86%
    12:00 -1°C° 0 mm 3 mps 727 mmHg 85%
    13:00 -1°C° 0 mm 3 mps 727 mmHg 84%
    14:00 -1°C° 0 mm 3 mps 727 mmHg 83%
    15:00 -1°C° 0 mm 2 mps 728 mmHg 84%
    16:00 -2°C° 0 mm 2 mps 728 mmHg 84%
    17:00 -2°C° 0 mm 2 mps 728 mmHg 85%
    18:00 0°C° 0 mm 1 mps 728 mmHg 85%
    19:00 0°C° 0 mm 1 mps 728 mmHg 85%
    20:00 0°C° 0 mm 1 mps 728 mmHg 85%
    21:00 0°C° 0 mm 1 mps 728 mmHg 86%
    22:00 0°C° 0 mm 1 mps 729 mmHg 87%
    23:00 -1°C° 0 mm 0 mps 729 mmHg 88%
    Show more